STARLINK-4506, 53554

Orbit data source: Space-Track

STARLINK-4506, 53554 is a payload satellite owned by SpaceX/Seattle (US) in LEO that was launched on Fri, 19 Aug 2022 UTC via an FALCON 9 launch vehicle from the Air Force Eastern Test Range (AFETR). Payload-class satellites include a variety of spacecraft equipped with specific instruments for various scientific and technological missions. These include communications satellites like Starlink; space stations such as the ISS; scientific satellites like the Hubble; Earth observation satellites from companies like Planet Labs, Umbra, and HawkEye 360; GPS; miniature CubeSats for education and research; and military/defense satellites.

Loading next visibility...
Identifier
53554, 2022-101AD
Orbit
LEO
Country
Flag of USUS
Related business
Manufacturer
SpaceX/Seattle
Mission
Operational Commercial Communications
Bus & Motor
STARLINK, Unknown motor
Mass
300 kg wet, ~290 kg dry
Launch date (UTC)
2022-08-19 (4 years ago)
Launch vehicle
FALCON 9
Launch site
Air Force Eastern Test Range (AFETR)
Object type
Payload
Rocket body
Debris
Shape & HBR
Box + 1 Pan, 10.1 m
Radar Cross Section
13.562 m², Large (>1 m²)

Expand to show TLE details & history
Last TLE update: 2 days ago

TLE from 2 days ago
0 STARLINK-4506
1 53554U 22101AD  26171.39833265 -.00001177  00000-0 -55874-4 0  9995
2 53554  53.1597 322.9352 0001009  83.2190 276.8916 15.08844530211813
Epoch: 2026-06-20T09:33Z
TLE epoch observation values (Epoch: 2026-06-20T09:33:35.940Z)
Latitude
-0.00006°
Longitude
-89.07812°
Altitude
540.537 km
Speed
7.593 km/s
True Right ascension
21h 31m 44s
True Declination
0° 00' 00"
Sunlit
Object was in full shadow at epoch
Visualization orbit readout
Latitude
Unknown
Longitude
Unknown
Altitude
Unknown
Speed
Unknown
Apparent Right ascension
Unknown
Apparent Declination
Unknown
Sunlit
N/A
Visualization observer readout
Local Sidereal Time
21:30:40
Azimuth
Unknown
Elevation
Unknown
Doppler factor
Unknown
Orbital elements
Apogee altitude
540.682 km
Perigee altitude
539.286 km
Semi-major axis
6,918.121 km
Eccentricity
0.0001
Inclination
53.1597°
RAAN
322.9352°
Arg. of periapsis
83.219°
True anomaly
276.88012°
Mean anomaly
276.8916°
Eccentric anomaly
276.88586°
Mean motion
3.77191 °/min
Orbital period
95.44 mins
BSTAR
-0.000055874
Loading maneuver chart data...
Computing Atmospheric mass density...
Loading historical data...
Loading historical data...
Loading historical data...
Loading historical data...
Loading historical data...
Loading historical data...
Loading historical data...

Documentation

Showing up to 5 results
|